This is the latest recevied weather packets stored in our database for station/object VK2HN. If no packets are shown the sender has not sent any weather packets the latest 10 day(s).
| Time | Temp. | Humidity | Pressure | Rain* | Wind** | Luminosity | Snow |
|---|---|---|---|---|---|---|---|
| 1778045140 | 22.22° C | 63% | 1016.9 hPa | 0 mm | - | - | - |
| 1778044839 | 22.22° C | 63% | 1016.9 hPa | 0 mm | - | - | - |
| 1778044540 | 22.22° C | 62% | 1016.8 hPa | 0 mm | - | - | - |
| 1778044240 | 22.22° C | 61% | 1016.9 hPa | 0 mm | - | - | - |
| 1778043939 | 22.22° C | 61% | 1016.8 hPa | 0 mm | - | - | - |
| 1778043640 | 22.78° C | 61% | 1017 hPa | 0 mm | - | - | - |
| 1778043340 | 22.78° C | 62% | 1017.1 hPa | 0 mm | - | - | - |
| 1778043040 | 22.78° C | 59% | 1017.1 hPa | 0 mm | - | - | - |
| 1778042740 | 23.33° C | 58% | 1017.3 hPa | 0 mm | - | - | - |
| 1778042440 | 23.89° C | 62% | 1017.2 hPa | 0 mm | - | - | - |
| 1778042140 | 23.89° C | 59% | 1017.3 hPa | 0 mm | - | - | - |
| 1778041840 | 23.89° C | 60% | 1017.4 hPa | 0 mm | - | - | - |
| 1778041540 | 23.89° C | 59% | 1017.3 hPa | 0 mm | - | - | - |
| 1778041240 | 23.89° C | 61% | 1017.5 hPa | 0 mm | - | - | - |
| 1778040940 | 23.89° C | 61% | 1017.5 hPa | 0 mm | - | - | - |
| 1778040640 | 23.33° C | 62% | 1017.6 hPa | 0 mm | - | - | - |
| 1778040340 | 23.33° C | 63% | 1017.6 hPa | 0 mm | - | - | - |
| 1778040040 | 22.78° C | 65% | 1017.7 hPa | 0 mm | - | - | - |
| 1778039740 | 22.78° C | 64% | 1017.7 hPa | 0 mm | - | - | - |
| 1778039440 | 22.78° C | 65% | 1017.8 hPa | 0 mm | - | - | - |
| 1778039140 | 22.22° C | 65% | 1017.9 hPa | 0 mm | - | - | - |
| 1778038840 | 22.78° C | 62% | 1017.9 hPa | 0 mm | - | - | - |
| 1778038540 | 22.78° C | 66% | 1017.9 hPa | 0 mm | - | - | - |
| 1778038240 | 22.78° C | 63% | 1017.9 hPa | 0 mm | - | - | - |
| 1778037940 | 23.33° C | 62% | 1018 hPa | 0 mm | - | - | - |
* Rain latest hour (hover to see other rain measurements)
** Current wind speed in m/s (hover to see current wind gust speed)